This is the latest recevied weather packets stored in our database for station/object KD8BMB. If no packets are shown the sender has not sent any weather packets the latest 10 day(s).
| Time | Temp. | Humidity | Pressure | Rain* | Wind** | Luminosity | Snow |
|---|---|---|---|---|---|---|---|
| 1777893233 | 9.44° C | 84% | 1003.5 hPa | 0 mm | - | 36 W/m² | - |
| 1777892930 | 8.89° C | 85% | 1004 hPa | 0 mm | - | 31 W/m² | - |
| 1777892626 | 8.89° C | 86% | 1003.6 hPa | 0 mm | - | 26 W/m² | - |
| 1777892322 | 8.89° C | 86% | 1003.6 hPa | 0 mm | - | 22 W/m² | - |
| 1777892018 | 8.89° C | 86% | 1003.9 hPa | 0 mm | - | 19 W/m² | - |
| 1777891716 | 8.89° C | 86% | 1003.7 hPa | 0 mm | - | 15 W/m² | - |
| 1777891412 | 8.33° C | 87% | 1003.7 hPa | 0 mm | - | 11 W/m² | - |
| 1777891107 | 8.33° C | 86% | 1003.5 hPa | 0 mm | - | 8 W/m² | - |
| 1777890803 | 8.89° C | 86% | 1004 hPa | 0 mm | - | 4 W/m² | - |
| 1777890499 | 8.89° C | 86% | 1003.9 hPa | 0 mm | - | 2 W/m² | - |
| 1777890195 | 8.33° C | 86% | 1003.9 hPa | 0 mm | - | 1 W/m² | - |
| 1777889891 | 8.33° C | 86% | 1003.9 hPa | 0 mm | - | 0 W/m² | - |
| 1777889589 | 8.33° C | 86% | 1003.7 hPa | 0 mm | - | 0 W/m² | - |
| 1777889287 | 8.33° C | 86% | 1003.9 hPa | 0 mm | - | 0 W/m² | - |
| 1777888984 | 8.33° C | 86% | 1004 hPa | 0 mm | - | 0 W/m² | - |
| 1777888681 | 8.89° C | 85% | 1004 hPa | 0 mm | - | 0 W/m² | - |
| 1777888376 | 8.89° C | 85% | 1004 hPa | 0 mm | - | 0 W/m² | - |
| 1777888073 | 8.89° C | 84% | 1004.2 hPa | 0 mm | - | 0 W/m² | - |
| 1777887770 | 8.89° C | 84% | 1004.2 hPa | 0 mm | - | 0 W/m² | - |
| 1777887467 | 8.89° C | 85% | 1004.2 hPa | 0 mm | - | 0 W/m² | - |
| 1777887163 | 8.89° C | 84% | 1004.1 hPa | 0 mm | - | 0 W/m² | - |
| 1777886859 | 8.89° C | 84% | 1004 hPa | 0 mm | - | 0 W/m² | - |
| 1777886554 | 8.89° C | 84% | 1004.1 hPa | 0 mm | - | 0 W/m² | - |
| 1777886253 | 8.89° C | 84% | 1004.1 hPa | 0 mm | - | 0 W/m² | - |
| 1777885950 | 8.89° C | 84% | 1004.3 hPa | 0 mm | - | 0 W/m² | - |
* Rain latest hour (hover to see other rain measurements)
** Current wind speed in m/s (hover to see current wind gust speed)